Simultaneous Nadir Overpasses (SNOs) Predictions

Prediction of SNOs between AQUA and GOES-15 Satellite Orbit:

Table of predicted SNOs for the next 14.0 days since TLE Epoch: 10/17/2020
Index Date Time (AQUA) AQUA Lat,Lon GOES-15 Lat,Lon Distance(km) Time Diff (sec)
1 10/18/2020 10:01:02 -0.52,-126.45 -0.13,-128.37 216.91 80
2 10/18/2020 22:22:26 -0.56,-131.65 0.13,-128.35 374.90 80
3 10/20/2020 22:10:13 0.03,-128.68 0.13,-128.32 41.61 80
4 10/22/2020 21:58:01 0.70,-125.73 0.13,-128.29 291.21 80
5 10/23/2020 10:19:16 0.44,-130.88 -0.12,-128.29 295.04 80
6 10/25/2020 10:07:04 -0.22,-127.93 -0.13,-128.25 37.72 80
7 10/27/2020 09:54:51 -0.83,-124.96 -0.14,-128.22 370.32 80
8 10/27/2020 22:16:13 -0.29,-130.15 0.12,-128.20 221.07 80
9 10/29/2020 22:04:01 0.32,-127.18 0.13,-128.17 111.35 80
10 10/30/2020 10:25:16 0.76,-132.34 -0.11,-128.16 475.60 80
